Tracking 19827 objects as of 22-Aug-2019
HD Live streaming from Space Station
objects crossing your sky now

START 1 DEB

Track START 1 DEB now!
10-day predictions


NORAD ID: 27752
Int'l Code: 1993-014G
Perigee: 678.5 km
Apogee: 944.6 km
Inclination: 75.8 °
Period: 101.0 minutes
Semi major axis: 7182 km
RCS: 0.017 m2 (small)
Launch date: March 25, 1993
Source: Commonwealth of Independent States (former USSR) (CIS)
Launch site: PLESETSK MISSILE AND SPACE COMPLEX (PKMTR)

Note: This is SATELLITE DEBRIS
aabbcc
Your satellite tracking list
Your tracking list is empty




NASA's NSSDC Master Catalog

Two Line Element Set (TLE):
1 27752U 93014G   19233.08216530 +.00000032 +00000-0 +16460-4 0  9999
2 27752 075.7627 356.7863 0185247 014.0147 098.4849 14.26226817903385
Source of the keplerian elements: AFSPC